Location: ??????
(38.0677°N, 22.9870°E)
Time: 17:39:38
(UTC+00:00)

ADEOS II - Pass Details

Date: 23 May 2024
Orbit: 796 x 798 km, 98.7° (Epoch: 23 June)

Event Time Altitude Azimuth Distance (km) Brightness Sun altitude
Rises 01:14:44 0° 7° (N) 3,307 6.2 -19.0°
Reaches altitude 10° 01:17:07 10° 2° (N) 2,373 5.2 -18.7°
Maximum altitude 01:22:09 49° 289° (WNW) 1,022 2.4 -18.0°
Enters shadow 01:24:18 31° 233° (SW) 1,374 2.7 -17.7°
